Location: Mauries
(43.6188°N, 0.3322°W)
Time: 19:08:13
(UTC+00:00)

Cosmos 1339 Rocket - Pass Details

Date: 14 January 2026
Orbit: 940 x 1006 km, 82.9° (Epoch: 10 February)

Event Time Altitude Azimuth Distance (km) Brightness Sun altitude
Rises 06:33:34 0° 348° (NNW) 3,614 7.2 -10.5°
Reaches altitude 10° 06:36:04 10° 346° (NNW) 2,666 6.5 -10.1°
Maximum altitude 06:42:03 63° 267° (W) 1,046 4.5 -9.1°
Drops below altitude 10° 06:48:02 10° 187° (S) 2,666 7.0 -8.0°
Sets 06:50:33 0° 184° (S) 3,614 7.7 -7.6°
